SL-16 DEB, 22344

Orbit data source: Space-Track

SL-16 DEB, 22344 is space debris in LEO originally from a launch on Fri, 25 Dec 1992 UTC launched from the Tyuratam Missile And Space Complex (TTMTR). Debris objects in space refer to the collection of defunct objects orbiting the Earth. Examples of debris include non-operational satellites, rocket bodies, and fragments generated from explosions, collisions, or faulty payload assembly.

Loading next visibility...
SL-16 DEB details
Identifier
22344, 1992-093AH
Orbit
LEO
Last TLE update18 hours ago
Origin
Flag of CISRVSN RF (CIS)
ManufacturerUnknown
MissionSpacecraft
Bus & MotorUnknown
MassUnknown
Launch date (UTC)
1992-12-25 (32 years ago)
Launch vehicleUnknown
Launch site
Tyuratam Missile And Space Complex (TTMTR)
Object type
Payload
Rocket body
Debris
Shape & HBRUnknown
Radar Cross SectionSmall (<0.1 m²)

Expand to show TLE details & history

TLE from 18 hours ago
0 SL-16 DEB
1 22344U 92093AH  24361.01236945  .00003510  00000-0  18933-2 0  9999
2 22344  71.0938 202.2580 0107992 276.3369  82.5461 14.10432394633298
Epoch: 2024-12-26T00:17Z
Definitive object data (Epoch: 2024-12-26T00:17:48.72Z)
Latitude-0.00008°
Longitude102.8071°
Altitude850.987 km
Speed7.432 km/s
True Right ascension13h 29m 01s
True Declination0° 00' 00"
Sunlit
Object was in daylight at TLE epoch
Visualization TLE readout
Latitude53.47743°
Longitude-106.10574°
Altitude935.704 km
Speed7.354 km/s
Apparent Right ascension02h 37m 19s
Apparent Declination14° 42' 37"
Sunlit
Object is in daylight
Visualization observer readout
Local Sidereal Time17:16:34
Azimuth42.682° NE
Elevation-24.012°
Doppler factor1
Orbital elements
Apogee altitude933.933 km
Perigee altitude777.691 km
Semi-major axis7,233.949 km
Eccentricity0.0107992
Inclination71.0938°
RAAN202.258°
Arg. of periapsis276.3369°
True anomaly83.7752°
Mean anomaly82.5461°
Eccentric anomaly83.16045°
Mean motion3.52761 °/min
BSTAR0.0018933
Orbital period102.05 mins
Loading maneuver chart data...
Loading historical data...
Loading historical data...
Loading historical data...
Loading historical data...
Loading historical data...
Loading historical data...
Loading historical data...

SL-16 DEB Visibility forecast

Observer location: undefined°, undefined

Span
Click to sort rows by Start time (UTC) header in descending order
Start Az.
Max El. time (UTC)
Max El. Az.
Max El.
End time (UTC)
End Az.
5 mins2024-12-26 22:59:09.610Z20.854° NNE2024-12-26 23:01:09.610Z41.742° NE14.68°2024-12-26 23:04:09.610Z74.167° E
10 mins2024-12-27 00:42:09.610Z338.628° N2024-12-27 00:47:09.610Z105.28° ESE44.831°2024-12-27 00:52:09.610Z156.177° SSE
8 mins2024-12-27 13:52:09.610Z150.925° SSE2024-12-27 13:56:09.610Z95.243° ESE25.726°2024-12-27 14:00:09.610Z48.36° ENE
9 mins2024-12-27 15:36:09.610Z238.542° WSW2024-12-27 15:40:09.610Z305.284° NW33.747°2024-12-27 15:45:09.610Z8.307° NNE
|